Location: ????????
(55.6189°N, 38.3031°E)
Time: 10:42:19
(UTC+00:00)

MSX - Pass Details

Date: 15 November 2019
Orbit: 895 x 906 km, 98.8° (Epoch: 11 December)

Event Time Altitude Azimuth Distance (km) Brightness Sun altitude
Rises 02:46:54 0° 14° (NNE) 3,529 7.0 -18.5°
Reaches altitude 10° 02:49:24 10° 8° (N) 2,585 6.2 -18.1°
Maximum altitude 02:54:47 43° 299° (WNW) 1,253 4.1 -17.4°
Enters shadow 02:59:17 14° 234° (SW) 2,269 5.5 -16.8°
